Satellite: ORSTED
Catalog number: 25635
Epoch time:      103042.94915863
Element set:     831 
Inclination:       96.4498 deg
RA of node:        30.7657 deg
Eccentricity:    0.0145724
Arg of perigee:   350.7216 deg
Mean anomaly:       9.1319 deg
Mean motion:   14.44826679 rev/day
Decay rate:    1.2389E-005 rev/day^2
Epoch rev:           20898
Checksum:              338

Satellite: SUNSAT
Catalog number: 25636
Epoch time:      103042.99091258
Element set:     668 
Inclination:       96.4523 deg
RA of node:        29.4678 deg
Eccentricity:    0.0149599
Arg of perigee:   356.9250 deg
Mean anomaly:       3.1013 deg
Mean motion:   14.42947265 rev/day
Decay rate:    6.1499E-006 rev/day^2
Epoch rev:           20886
Checksum:              344

Satellite: UOSAT 12
Catalog number: 25693
Epoch time:      103043.45385296
Element set:     698 
Inclination:       64.5594 deg
RA of node:        29.5019 deg
Eccentricity:    0.0019804
Arg of perigee:   316.3500 deg
Mean anomaly:      43.6020 deg
Mean motion:   14.76382034 rev/day
Decay rate:    7.5799E-006 rev/day^2
Epoch rev:           20535
Checksum:              321

Satellite: FENGYUN 1C
Catalog number: 25730
Epoch time:      103043.55789845
Element set:     765 
Inclination:       98.6341 deg
RA of node:        68.1833 deg
Eccentricity:    0.0014742
Arg of perigee:    23.3388 deg
Mean anomaly:     336.8449 deg
Mean motion:   14.11732751 rev/day
Decay rate:   -3.1999E-007 rev/day^2
Epoch rev:           19378
Checksum:              346

Satellite: ASTRA 1H
Catalog number: 25785
Epoch time:      103041.00000000
Element set:     371 
Inclination:        0.0122 deg
RA of node:       319.8851 deg
Eccentricity:    0.0002995
Arg of perigee:    65.1991 deg
Mean anomaly:     133.7806 deg
Mean motion:    1.00273184 rev/day
Decay rate:    1.2900E-006 rev/day^2
Epoch rev:            1341
Checksum:              233

Satellite: TERRA
Catalog number: 25994
Epoch time:      103043.26990660
Element set:     689 
Inclination:       98.2008 deg
RA of node:       119.5879 deg
Eccentricity:    0.0000907
Arg of perigee:    81.2782 deg
Mean anomaly:     278.8519 deg
Mean motion:   14.57125314 rev/day
Decay rate:    7.7599E-006 rev/day^2
Epoch rev:           16775
Checksum:              364

Satellite: JAWSAT
Catalog number: 26061
Epoch time:      103043.52496999
Element set:     763 
Inclination:      100.2088 deg
RA of node:        99.4730 deg
Eccentricity:    0.0034792
Arg of perigee:   296.9062 deg
Mean anomaly:      62.8565 deg
Mean motion:   14.37817956 rev/day
Decay rate:    6.2700E-006 rev/day^2
Epoch rev:           15966
Checksum:              343

Satellite: OPAL
Catalog number: 26063
Epoch time:      103043.56097091
Element set:     719 
Inclination:      100.2139 deg
RA of node:        97.0515 deg
Eccentricity:    0.0036992
Arg of perigee:   304.2828 deg
Mean anomaly:      55.4856 deg
Mean motion:   14.35478812 rev/day
Decay rate:    1.7600E-006 rev/day^2
Epoch rev:           15952
Checksum:              306

Satellite: ASUSAT
Catalog number: 26065
Epoch time:      103042.89066309
Element set:     731 
Inclination:      100.2113 deg
RA of node:        96.4058 deg
Eccentricity:    0.0037000
Arg of perigee:   307.1422 deg
Mean anomaly:      52.6381 deg
Mean motion:   14.35505736 rev/day
Decay rate:    1.8599E-006 rev/day^2
Epoch rev:           15942
Checksum:              280

Satellite: GOES 11
Catalog number: 26352
Epoch time:      103040.34226223
Element set:     16 
Inclination:        0.1169 deg
RA of node:       104.3657 deg
Eccentricity:    0.0003610
Arg of perigee:   219.8219 deg
Mean anomaly:     184.8358 deg
Mean motion:    1.00264164 rev/day
Decay rate:   -2.6000E-007 rev/day^2
Epoch rev:            1014
Checksum:              236

Satellite: EUTELSAT W4
Catalog number: 26369
Epoch time:      103042.91619900
Element set:     352 
Inclination:        0.0295 deg
RA of node:         8.5955 deg
Eccentricity:    0.0003064
Arg of perigee:   313.2309 deg
Mean anomaly:     185.6602 deg
Mean motion:    1.00275437 rev/day
Decay rate:    1.6400E-006 rev/day^2
Epoch rev:             998
Checksum:              275

Satellite: FENGYUN 2B
Catalog number: 26382
Epoch time:      103042.97640736
Element set:     792 
Inclination:        0.5833 deg
RA of node:       287.5767 deg
Eccentricity:    0.0001763
Arg of perigee:   227.4922 deg
Mean anomaly:      82.3211 deg
Mean motion:    1.00279861 rev/day
Decay rate:   -3.2099E-006 rev/day^2
Epoch rev:             964
Checksum:              307

Satellite: EUTELSAT W1
Catalog number: 26487
Epoch time:      103042.38401905
Element set:     353 
Inclination:        0.0054 deg
RA of node:       227.3454 deg
Eccentricity:    0.0004136
Arg of perigee:    80.8275 deg
Mean anomaly:     341.0643 deg
Mean motion:    1.00272936 rev/day
Decay rate:    9.9999E-009 rev/day^2
Epoch rev:             895
Checksum:              294

Satellite: ASTRA 2B
Catalog number: 26494
Epoch time:      103041.00000000
Element set:     254 
Inclination:        0.0178 deg
RA of node:       354.5658 deg
Eccentricity:    0.0005000
Arg of perigee:   302.8402 deg
Mean anomaly:     230.4186 deg
Mean motion:    1.00276704 rev/day
Decay rate:    1.5900E-006 rev/day^2
Epoch rev:             883
Checksum:              222

Satellite: NOAA 16
Catalog number: 26536
Epoch time:      103042.77877261
Element set:     204 
Inclination:       98.9012 deg
RA of node:       351.1125 deg
Eccentricity:    0.0010269
Arg of perigee:   329.4013 deg
Mean anomaly:      30.6581 deg
Mean motion:   14.11900395 rev/day
Decay rate:    3.8799E-006 rev/day^2
Epoch rev:           12319
Checksum:              298

Satellite: SAUDISAT 1A
Catalog number: 26545
Epoch time:      103042.71636511
Element set:     412 
Inclination:       64.5592 deg
RA of node:        52.9838 deg
Eccentricity:    0.0052541
Arg of perigee:   239.8994 deg
Mean anomaly:     119.6899 deg
Mean motion:   14.78964048 rev/day
Decay rate:    1.6230E-005 rev/day^2
Epoch rev:           12821
Checksum:              331

Satellite: UNISAT
Catalog number: 26547
Epoch time:      103042.63870895
Element set:     429 
Inclination:       64.5575 deg
RA of node:        55.4833 deg
Eccentricity:    0.0059580
Arg of perigee:   242.1810 deg
Mean anomaly:     117.3263 deg
Mean motion:   14.79718373 rev/day
Decay rate:    2.6080E-005 rev/day^2
Epoch rev:           12816
Checksum:              319

Satellite: TIUNGSAT 1
Catalog number: 26548
Epoch time:      103042.54692983
Element set:     417 
Inclination:       64.5582 deg
RA of node:        46.4711 deg
Eccentricity:    0.0045880
Arg of perigee:   239.0084 deg
Mean anomaly:     120.6511 deg
Mean motion:   14.81246822 rev/day
Decay rate:    2.0289E-005 rev/day^2
Epoch rev:           12833
Checksum:              302

Satellite: SAUDISAT 1B
Catalog number: 26549
Epoch time:      103043.49185858
Element set:     690 
Inclination:       64.5520 deg
RA of node:        54.6824 deg
Eccentricity:    0.0057053
Arg of perigee:   239.7772 deg
Mean anomaly:     119.7679 deg
Mean motion:   14.77903179 rev/day
Decay rate:    1.3369E-005 rev/day^2
Epoch rev:           12824
Checksum:              348

Satellite: AMSAT OSCAR 40
Catalog number: 26609
Epoch time:      103042.26455231
Element set:     310 
Inclination:        8.0482 deg
RA of node:        65.4048 deg
Eccentricity:    0.7940113
Arg of perigee:   142.6388 deg
Mean anomaly:     315.2305 deg
Mean motion:    1.25596326 rev/day
Decay rate:   -6.7000E-007 rev/day^2
Epoch rev:            1049
Checksum:              271

Satellite: GOES 12
Catalog number: 26871
Epoch time:      103038.59289693
Element set:     810 
Inclination:        0.3528 deg
RA of node:       276.6744 deg
Eccentricity:    0.0003201
Arg of perigee:   358.7723 deg
Mean anomaly:     337.2121 deg
Mean motion:    1.00363477 rev/day
Decay rate:   -1.4099E-006 rev/day^2
Epoch rev:             572
Checksum:              299

Satellite: PCSAT
Catalog number: 26931
Epoch time:      103042.94668455
Element set:     402 
Inclination:       67.0479 deg
RA of node:       272.6632 deg
Eccentricity:    0.0005011
Arg of perigee:   264.2308 deg
Mean anomaly:      95.8221 deg
Mean motion:   14.29111549 rev/day
Decay rate:    1.6300E-006 rev/day^2
Epoch rev:            7140
Checksum:              277

Satellite: SAPPHIRE
Catalog number: 26932
Epoch time:      103043.20546050
Element set:     394 
Inclination:       67.0552 deg
RA of node:       271.7039 deg
Eccentricity:    0.0005118
Arg of perigee:   240.6252 deg
Mean anomaly:     119.4337 deg
Mean motion:   14.29292190 rev/day
Decay rate:    1.3600E-006 rev/day^2
Epoch rev:            7146
Checksum:              270

Satellite: ENVISAT
Catalog number: 27386
Epoch time:      103043.46720128
Element set:     932 
Inclination:       98.5458 deg
RA of node:       112.1027 deg
Eccentricity:    0.0000959
Arg of perigee:   104.8347 deg
Mean anomaly:     255.2939 deg
Mean motion:   14.32256665 rev/day
Decay rate:    2.0800E-006 rev/day^2
Epoch rev:            4987
Checksum:              312

Satellite: IDEFIX/ARIANE 
Catalog number: 27422
Epoch time:      103043.50638298
Element set:     231 
Inclination:       98.6953 deg
RA of node:       122.7360 deg
Eccentricity:    0.0012833
Arg of perigee:   164.1575 deg
Mean anomaly:     196.0009 deg
Mean motion:   14.27966545 rev/day
Decay rate:    2.6200E-006 rev/day^2
Epoch rev:            4059
Checksum:              303

